This is the latest recevied weather packets stored in our database for station/object NI4CE-10. If no packets are shown the sender has not sent any weather packets the latest 10 day(s).
| Time | Temp. | Humidity | Pressure | Rain* | Wind** | Luminosity | Snow |
|---|---|---|---|---|---|---|---|
| 1777677370 | 26.67° C | 100% | 1013.1 hPa | 0 mm | - | - | - |
| 1777677070 | 27.22° C | 100% | 1013 hPa | 0 mm | - | - | - |
| 1777676770 | 27.22° C | 100% | 1013 hPa | 0 mm | - | - | - |
| 1777676470 | 27.22° C | 100% | 1012.9 hPa | 0 mm | - | - | - |
| 1777676171 | 27.22° C | 100% | 1012.9 hPa | 0 mm | - | - | - |
| 1777675870 | 27.78° C | 100% | 1012.9 hPa | 0 mm | - | - | - |
| 1777675570 | 27.78° C | 100% | 1012.9 hPa | 0 mm | - | - | - |
| 1777675270 | 27.78° C | 100% | 1012.9 hPa | 0 mm | - | - | - |
| 1777674970 | 28.33° C | 100% | 1012.8 hPa | 0 mm | - | - | - |
| 1777674671 | 27.78° C | 100% | 1012.9 hPa | 0 mm | - | - | - |
| 1777674386 | 28.33° C | 100% | 1012.8 hPa | 0 mm | - | - | - |
| 1777674071 | 28.33° C | 100% | 1012.9 hPa | 0 mm | - | - | - |
| 1777673770 | 27.78° C | 100% | 1012.8 hPa | 0 mm | - | - | - |
| 1777673470 | 28.33° C | 100% | 1012.8 hPa | 0 mm | - | - | - |
| 1777673170 | 28.89° C | 100% | 1012.8 hPa | 0 mm | - | - | - |
| 1777673104 | 28.89° C | 100% | 1012.8 hPa | 0 mm | - | - | - |
| 1777672870 | 28.89° C | 100% | 1012.8 hPa | 0 mm | - | - | - |
| 1777672570 | 28.89° C | 100% | 1012.7 hPa | 0 mm | - | - | - |
| 1777672374 | 28.33° C | 100% | 1012.6 hPa | 0 mm | - | - | - |
| 1777672270 | 28.33° C | 100% | 1012.6 hPa | 0 mm | - | - | - |
| 1777671970 | 28.89° C | 100% | 1012.7 hPa | 0 mm | - | - | - |
| 1777671670 | 29.44° C | 100% | 1012.8 hPa | 0 mm | - | - | - |
| 1777671370 | 30° C | 100% | 1012.9 hPa | 0 mm | - | - | - |
| 1777671070 | 30° C | 100% | 1012.9 hPa | 0 mm | - | - | - |
| 1777670770 | 29.44° C | 100% | 1012.7 hPa | 0 mm | - | - | - |
* Rain latest hour (hover to see other rain measurements)
** Current wind speed in m/s (hover to see current wind gust speed)